Find Starlink 30533

NORAD ID: 58037 Int'l Des: 2023-156 Owner: SPXS Country: US Constellation: starlink operational
LEOCIRCULAR

Current View

Loading 3D Globe...

About Starlink 30533

Starlink 30533 (NORAD 58037) is a starlink constellation satellite (v2 mini) launched Oct 9, 2023 by SPXS of US. It operates in LEO, CIRCULAR orbit with a mass of 730.00 kg.

About Starlink 30533

Description loading...

Upcoming Passes

Passes for default location (London). Set your location on the main map for personalized predictions.

Altitude History

Loading altitude history...

Two-Line Element Set

1 58037U 23156K 26166.22432158 .00030799 00000-0 91938-3 0 9999
2 58037 53.1609 74.5770 0001238 78.0803 282.0338 15.34385218149975
Epoch: Jun 15, 2026 • Age: 17 hours

Current Status

Altitude 462.7 km
Velocity 7.64 km/s
Sub-Earth Point 20.82°N, 156.96°W
Launch Date Oct 9, 2023
Age 2.6 years
Type internet

Technical Details

Classification Payload
Mass 730.00 kg
Dry Mass 700.00 kg
Total Mass 730.00 kg
Length 0.30 m
Diameter 4.10 m
Span 29.00 m
Shape Box + pan
Manufacturer SPXS
Bus Type Starlink V2M
Phase Status In Orbit
Owner/State SPXS/US

Most Searched